Weather Roundup
Issued by NWS

Home | Current Version | Previous Version | Text Only | Print | Product List | Glossary On
Versions: 1 2 3 4 5 6 7 8 9 10 11 12 13 14 15 16 17 18 19 20 21 22 23 24 25 26 27 28 29 30 31 32 33 34 35 36 37 38 39 40 41 42 43 44 45 46 47 48 49 50
000
NZUS93 KARX 280210
HRRWXR

CURRENT HOURLY OBSERVATIONS ACROSS
MUCH OF THE UPPER MISSISSIPPI VALLEY
NATIONAL WEATHER SERVICE LA CROSSE WI
900 PM CDT TUE JUN 27 2017


...SOUTHEAST MINNESOTA...


CITY           SKY/WX    TMP DP  RH WIND       PRES   REMARKS
ROCHESTER      CLOUDY    67  44  43 S8        29.91R
ROCHESTER/MAYO FAIR      69  42  38 S5        29.91R
WINONA         CLEAR     68  50  52 CALM      29.91R
AUSTIN         PTCLDY    66  45  45 S3        29.90R
ALBERT LEA     CLOUDY    70  45  40 S7        29.88R
DODGE CENTER   CLOUDY    66  45  45 S6        29.91R
PRESTON        CLOUDY    65  44  46 S9        29.91S
OWATONNA       CLOUDY    70  46  43 S6        29.88F
FARIBAULT      PTCLDY    70  45  40 SE9       29.86F
$$

...ELSEWHERE IN MINNESOTA...


CITY           SKY/WX    TMP DP  RH WIND       PRES   REMARKS
MINNEAPOLIS    CLOUDY    73  43  33 S14       29.83F
INTNL FALLS    CLEAR     65  46  50 VRB3      29.75F
DULUTH         CLEAR     65  46  50 SW7       29.84F
RED WING       CLEAR     70  41  35 S7        29.87F
REDWOOD FALLS  MOCLDY    74  45  35 SE15      29.75F
MANKATO        CLOUDY    70  48  45 SE10      29.84F
WORTHINGTON    CLOUDY    73  57  57 S10       29.78R
FAIRMONT       PTCLDY    70  50  49 SE13      29.81F
$$

...SOUTHWEST WISCONSIN...


CITY           SKY/WX    TMP DP  RH WIND       PRES   REMARKS
LA CROSSE      CLEAR     72  48  42 SE10      29.90F
PRAIRIE DU CHI NOT AVBL
BOSCOBEL       CLEAR     68  48  48 S5        29.95S
LONE ROCK      PTCLDY    65  50  58 SE3       29.95F
PLATTEVILLE    NOT AVBL
FORT MC COY    CLEAR     65  49  56 S5        29.93F
CAMP DOUGLAS   MOCLDY    66  48  52 S5        29.94S
MAUSTON-NEW LI NOT AVBL
VIROQUA        NOT AVBL
WIS DELLS      NOT AVBL
$$

...ELSEWHERE IN WISCONSIN...


CITY           SKY/WX    TMP DP  RH WIND       PRES   REMARKS
MILWAUKEE      MOCLDY    65  51  60 S8        30.00S
MADISON        PTCLDY    69  47  45 S7        29.97S
GREEN BAY      CLEAR     66  53  63 S5        29.95S
EAU CLAIRE     CLEAR     68  46  45 S8        29.89S
BLACK RVR FLS  FAIR      66  46  49 S3        29.92S
MEDFORD        NOT AVBL
WAUSAU           N/A    N/A N/A N/A MISG      29.92S
WIS RAPIDS     CLEAR     64  51  62 S6        29.95S
MARSHFIELD     CLEAR     61  47  59 SW6       29.93S
RICE LAKE      CLEAR     68  44  41 S8        29.90S
$$

...NORTHEAST IOWA...


CITY           SKY/WX    TMP DP  RH WIND       PRES   REMARKS
WATERLOO       PTCLDY    69  46  43 S10       29.90S
DUBUQUE        MOCLDY    63  49  60 S9        29.97F
DECORAH        CLOUDY    64  50  59 SE7       29.91F
MASON CITY     CLEAR     68  46  45 S9        29.89F
CHARLES CITY   MOCLDY    66  46  48 SE7       29.90S
OELWEIN        PTCLDY    66  46  48 SE8       29.93S
$$

...ELSEWHERE IN IOWA...


CITY           SKY/WX    TMP DP  RH WIND       PRES   REMARKS
DES MOINES     PTCLDY    74  56  53 SE12      29.88F
IOWA CITY      MOCLDY    68  50  52 SE7       29.96F
FORT DODGE     PTCLDY    72  52  49 SE7       29.86S
MARSHALLTOWN   MOCLDY    71  51  49 SE12      29.89F
CEDAR RAPIDS   MOCLDY    67  50  54 S7        29.93F
$$

...NORTHERN ILLINOIS...


CITY           SKY/WX    TMP DP  RH WIND       PRES   REMARKS
CHICAGO-OHARE  MOCLDY    70  44  39 S7        30.01S
CHICAGO-MIDWAY PTCLDY    72  45  37 S8        30.02S
MOLINE         PTCLDY    66  50  56 SE8       29.97F
ROCKFORD       MOCLDY    66  48  52 S7        30.01S
PEORIA         CLEAR     68  50  52 SE5       30.01F
$$

NOTE: "FAIR" INDICATES FEW OR NO CLOUDS BELOW 12,000 FEET WITH NO
SIGNIFICANT WEATHER AND/OR OBSTRUCTIONS TO VISIBILITY. WIND
SPEEDS ARE IN MILES-PER-HOUR.




USA.gov is the U.S. government's official web portal to all federal, state and local government web resources and services.